Location: Newark
(43.6583°N, 1.6617°E)
Time: 01:57:27
(UTC+00:00)

Courier 1B - Pass Details

Date: 02 September 2019
Orbit: 962 x 1209 km, 28.3° (Epoch: 23 October)

Event Time Altitude Azimuth Distance (km) Brightness Sun altitude
Rises 13:06:01 0° 225° (SW) 4,085 11.3 50.9°
Reaches altitude 10° 13:09:48 10° 209° (SSW) 3,099 11.0 50.5°
Maximum altitude 13:14:56 19° 167° (SSE) 2,422 10.3 50.0°
Drops below altitude 10° 13:19:54 10° 124° (SE) 3,000 10.2 49.5°
Sets 13:23:29 0° 108° (ESE) 3,914 10.5 49.2°
